N5RPG Weather Reports


time (UTC)temp
C
wind
direction
speed
KPH
gust
KPH
rain 1hr
cm
rain 24hr
cm
rain mn
cm
humidity
%
barometer
mb
20260505075920 20 223 3.2 9.7 0.00 0.00 0.00 83 1008.7
20260505075417 20 198 8.0 9.7 0.00 0.00 0.00 83 1008.8
20260505074915 20 130 1.6 9.7 0.00 0.00 0.00 83 1008.9
20260505074412 20 111 4.8 6.4 0.00 0.00 0.00 82 1008.9
20260505073909 20 47 0.0 11.3 0.00 0.00 0.00 82 1008.9
20260505073407 20 157 4.8 9.7 0.00 0.00 0.00 82 1009.0
20260505072904 20 209 3.2 20.9 0.00 0.00 0.00 83 1009.0
20260505072400 20 220 3.2 6.4 0.00 0.00 0.00 82 1009.1
20260505071856 20 49 0.0 4.8 0.00 0.00 0.00 82 1009.2
20260505071352 20 146 3.2 6.4 0.00 0.00 0.00 82 1008.9
20260505070851 20 235 3.2 6.4 0.00 0.00 0.00 82 1009.3
20260505070347 20 235 3.2 4.8 0.00 0.00 0.00 81 1009.2
20260505065842 20 212 1.6 4.8 0.00 0.00 0.00 81 1009.4
20260505065339 20 155 3.2 6.4 0.00 0.00 0.00 81 1009.3
20260505064836 20 150 6.4 14.5 0.00 0.00 0.00 81 1009.3
20260505064333 20 180 0.0 4.8 0.00 0.00 0.00 80 1009.6
20260505063832 20 289 1.6 6.4 0.00 0.00 0.00 80 1009.4
20260505063327 20 131 4.8 8.0 0.00 0.00 0.00 80 1009.4
20260505062824 20 207 3.2 6.4 0.00 0.00 0.00 79 1009.6
20260505062321 20 121 9.7 11.3 0.00 0.00 0.00 79 1009.7
20260505061818 20 151 1.6 8.0 0.00 0.00 0.00 79 1009.6
20260505061316 20 199 4.8 4.8 0.00 0.00 0.00 79 1009.6
20260505060813 20 118 1.6 8.0 0.00 0.00 0.00 79 1009.6
20260505060310 20 158 3.2 9.7 0.00 0.00 0.00 78 1009.8
20260505055806 20 5 0.0 8.0 0.00 0.00 0.00 78 1009.8
20260505055303 20 163 1.6 6.4 0.00 0.00 0.00 78 1009.6
20260505054800 20 231 1.6 8.0 0.00 0.00 0.00 77 1009.8
20260505054257 20 158 0.0 3.2 0.00 0.00 0.00 77 1010.0
20260505053755 20 120 3.2 4.8 0.00 0.00 0.00 77 1010.0
20260505053251 20 135 6.4 8.0 0.00 0.00 0.00 77 1009.8
20260505052749 20 127 4.8 8.0 0.00 0.00 0.00 77 1009.9
20260505052246 20 147 0.0 6.4 0.00 0.00 0.00 76 1009.9
20260505051742 20 211 3.2 6.4 0.00 0.00 0.00 76 1009.7
20260505051240 20 168 3.2 8.0 0.00 0.00 0.00 76 1009.8
20260505050738 20 150 3.2 8.0 0.00 0.00 0.00 76 1009.7
20260505050236 20 123 3.2 6.4 0.00 0.00 0.00 76 1009.8
20260505041706 20 219 0.0 8.0 0.00 0.00 0.00 74 1010.1
20260505041203 20 269 1.6 6.4 0.00 0.00 0.00 74 1010.0
20260505040700 20 129 4.8 4.8 0.00 0.00 0.00 74 1010.1
20260505040157 20 134 3.2 11.3 0.00 0.00 0.00 73 1010.0
20260505035654 20 216 1.6 6.4 0.00 0.00 0.00 73 1010.0
20260505035150 20 155 3.2 3.2 0.00 0.00 0.00 73 1009.8
20260505034647 20 106 3.2 14.5 0.00 0.00 0.00 73 1010.1
20260505034144 20 55 3.2 4.8 0.00 0.00 0.00 73 1010.1
20260505033640 20 118 0.0 9.7 0.00 0.00 0.00 72 1010.0
20260505033139 20 224 0.0 3.2 0.00 0.00 0.00 72 1010.1
20260505032637 20 171 3.2 6.4 0.00 0.00 0.00 72 1010.2
20260505032132 20 311 0.0 6.4 0.00 0.00 0.00 72 1010.3
20260505031630 20 158 1.6 6.4 0.00 0.00 0.00 71 1010.1
20260505031126 21 280 1.6 4.8 0.00 0.00 0.00 71 1009.9
20260505030623 21 155 4.8 8.0 0.00 0.00 0.00 70 1010.1
20260505030119 21 104 3.2 4.8 0.00 0.00 0.00 70 1010.0
20260505025615 21 178 0.0 3.2 0.00 0.00 0.00 69 1009.9
20260505025114 21 109 3.2 3.2 0.00 0.00 0.00 69 1009.9
20260505024611 21 184 0.0 4.8 0.00 0.00 0.00 69 1010.0
20260505024108 21 109 3.2 4.8 0.00 0.00 0.00 68 1009.9
20260505023605 21 184 0.0 14.5 0.00 0.00 0.00 68 1010.0
20260505023103 21 148 4.8 6.4 0.00 0.00 0.00 67 1009.6
20260505022600 21 46 1.6 3.2 0.00 0.00 0.00 67 1009.8
20260505022057 21 109 0.0 4.8 0.00 0.00 0.00 67 1009.8
20260505021553 21 180 3.2 6.4 0.00 0.00 0.00 66 1009.7
20260505021050 21 143 3.2 4.8 0.00 0.00 0.00 66 1009.6
20260505020550 22 111 4.8 6.4 0.00 0.00 0.00 65 1009.6
20260505020047 22 142 3.2 4.8 0.00 0.00 0.00 65 1009.7
20260505015544 22 206 3.2 8.0 0.00 0.00 0.00 64 1009.5
20260505015041 22 210 0.0 3.2 0.00 0.00 0.00 64 1009.4
20260505014538 22 200 1.6 3.2 0.00 0.00 0.00 64 1009.3
20260505014035 22 1 4.8 4.8 0.00 0.00 0.00 63 1009.4
20260505013532 22 93 1.6 3.2 0.00 0.00 0.00 63 1009.3
20260505013030 22 211 3.2 11.3 0.00 0.00 0.00 63 1009.3
20260505012527 22 207 3.2 8.0 0.00 0.00 0.00 63 1009.4
20260505012024 22 154 3.2 4.8 0.00 0.00 0.00 62 1009.3
20260505011519 22 177 3.2 6.4 0.00 0.00 0.00 61 1009.3
20260505011017 22 128 3.2 4.8 0.00 0.00 0.00 60 1009.4
20260505010512 22 177 0.0 3.2 0.00 0.00 0.00 60 1009.3
20260505010009 23 107 3.2 3.2 0.00 0.00 0.00 59 1009.1
20260505005506 23 120 0.0 3.2 0.00 0.00 0.00 58 1009.3
20260505005004 23 117 0.0 1.6 0.00 0.00 0.00 57 1009.1
20260505004500 23 164 0.0 3.2 0.00 0.00 0.00 56 1009.3
20260505003956 23 135 1.6 1.6 0.00 0.00 0.00 55 1009.2
20260505003454 23 282 0.0 3.2 0.00 0.00 0.00 53 1009.3
20260505002950 24 160 0.0 3.2 0.00 0.00 0.00 53 1009.3
20260505002446 24 112 6.4 6.4 0.00 0.00 0.00 52 1009.5
20260505001945 24 191 0.0 1.6 0.00 0.00 0.00 52 1009.6
20260505001442 25 196 4.8 4.8 0.00 0.00 0.00 51 1009.6
20260505000939 25 124 0.0 8.0 0.00 0.00 0.00 49 1009.9
20260505000437 25 190 0.0 6.4 0.00 0.00 0.00 49 1009.5
20260504235933 25 46 3.2 8.0 0.00 0.00 0.00 48 1009.9
20260504235431 25 317 3.2 6.4 0.00 0.00 0.00 47 1010.0
20260504234927 26 182 4.8 11.3 0.00 0.00 0.00 46 1009.9
20260504234424 26 198 1.6 4.8 0.00 0.00 0.00 47 1009.9
20260504233921 26 173 3.2 8.0 0.00 0.00 0.00 47 1009.9
20260504233417 26 141 0.0 9.7 0.00 0.00 0.00 45 1010.1
20260504232914 26 178 3.2 6.4 0.00 0.00 0.00 44 1010.3
20260504232410 26 221 3.2 8.0 0.00 0.00 0.00 43 1010.3
20260504231908 27 165 1.6 8.0 0.00 0.00 0.00 44 1010.4
20260504231404 27 162 6.4 9.7 0.00 0.00 0.00 43 1010.4
20260504230900 27 277 4.8 14.5 0.00 0.00 0.00 44 1010.5
20260504230358 27 183 4.8 6.4 0.00 0.00 0.00 44 1010.5
20260504225856 27 172 4.8 14.5 0.00 0.00 0.00 43 1010.4
20260504225352 27 121 8.0 9.7 0.00 0.00 0.00 43 1010.3
20260504224850 27 141 6.4 8.0 0.00 0.00 0.00 43 1010.4
20260504224347 27 203 3.2 11.3 0.00 0.00 0.00 43 1010.7
20260504223843 27 182 4.8 14.5 0.00 0.00 0.00 42 1010.7
20260504223339 27 201 3.2 14.5 0.00 0.00 0.00 44 1010.6
20260504222836 27 151 1.6 14.5 0.00 0.00 0.00 43 1010.8
20260504222332 27 267 4.8 12.9 0.00 0.00 0.00 44 1010.8
20260504221831 27 195 4.8 11.3 0.00 0.00 0.00 43 1011.0
20260504221327 27 213 3.2 11.3 0.00 0.00 0.00 43 1011.0
20260504220825 27 207 3.2 16.1 0.00 0.00 0.00 41 1011.3
20260504220321 28 119 6.4 9.7 0.00 0.00 0.00 42 1011.2
20260504215819 27 133 4.8 6.4 0.00 0.00 0.00 43 1011.1
20260504215315 27 222 3.2 6.4 0.00 0.00 0.00 44 1011.0
20260504214811 27 219 8.0 11.3 0.00 0.00 0.00 42 1011.1
20260504214308 27 119 6.4 8.0 0.00 0.00 0.00 43 1011.3
20260504213804 27 108 3.2 12.9 0.00 0.00 0.00 44 1011.4
20260504213300 27 138 3.2 11.3 0.00 0.00 0.00 42 1011.4
20260504212758 27 352 3.2 4.8 0.00 0.00 0.00 44 1011.4
20260504212254 27 214 3.2 6.4 0.00 0.00 0.00 45 1011.7
20260504211752 27 172 3.2 9.7 0.00 0.00 0.00 43 1011.7
20260504211247 27 154 4.8 6.4 0.00 0.00 0.00 44 1012.0
20260504210745 27 268 6.4 12.9 0.00 0.00 0.00 43 1012.1
20260504210242 27 173 1.6 6.4 0.00 0.00 0.00 45 1012.2
20260504205739 27 128 6.4 11.3 0.00 0.00 0.00 44 1012.3
20260504205237 27 115 9.7 11.3 0.00 0.00 0.00 43 1012.4
20260504204735 27 245 0.0 14.5 0.00 0.00 0.00 46 1012.4
20260504204233 27 185 3.2 11.3 0.00 0.00 0.00 43 1012.3
20260504203732 27 159 9.7 16.1 0.00 0.00 0.00 45 1012.6
20260504203229 27 169 3.2 14.5 0.00 0.00 0.00 44 1012.7
20260504202729 27 212 6.4 11.3 0.00 0.00 0.00 42 1012.7
20260504202226 27 127 3.2 4.8 0.00 0.00 0.00 45 1012.9
20260504201724 26 206 4.8 8.0 0.00 0.00 0.00 44 1013.0
20260504201221 27 232 3.2 16.1 0.00 0.00 0.00 43 1013.0
20260504200718 27 108 3.2 9.7 0.00 0.00 0.00 43 1013.1
20260504200214 27 309 1.6 6.4 0.00 0.00 0.00 45 1013.1
20260504195711 26 214 6.4 12.9 0.00 0.00 0.00 44 1013.3
20260504195207 26 241 3.2 9.7 0.00 0.00 0.00 44 1013.5
20260504194704 26 262 8.0 11.3 0.00 0.00 0.00 44 1013.6
20260504194200 26 124 8.0 19.3 0.00 0.00 0.00 42 1013.8
20260504193656 26 236 8.0 8.0 0.00 0.00 0.00 45 1013.5
20260504193154 27 233 3.2 8.0 0.00 0.00 0.00 42 1013.9
20260504192652 26 188 3.2 11.3 0.00 0.00 0.00 46 1013.8
20260504192150 26 146 9.7 24.1 0.00 0.00 0.00 44 1014.0
20260504191648 26 156 6.4 9.7 0.00 0.00 0.00 43 1014.0
20260504191144 26 273 6.4 12.9 0.00 0.00 0.00 43 1014.1
20260504190640 26 281 6.4 9.7 0.00 0.00 0.00 44 1014.2
20260504190137 26 114 4.8 16.1 0.00 0.00 0.00 46 1014.1
20260504185633 26 242 3.2 12.9 0.00 0.00 0.00 45 1014.4
20260504185130 26 218 1.6 9.7 0.00 0.00 0.00 45 1014.2
20260504184626 26 223 8.0 9.7 0.00 0.00 0.00 43 1014.5
20260504184121 26 147 6.4 14.5 0.00 0.00 0.00 44 1014.6
20260504183619 26 243 6.4 12.9 0.00 0.00 0.00 45 1014.5
20260504183116 26 159 4.8 20.9 0.00 0.00 0.00 45 1014.9
20260504182614 26 135 4.8 8.0 0.00 0.00 0.00 47 1014.6
20260504182111 26 126 6.4 12.9 0.00 0.00 0.00 47 1014.8
20260504181608 25 165 0.0 11.3 0.00 0.00 0.00 48 1014.9
20260504181106 26 199 4.8 11.3 0.00 0.00 0.00 46 1015.1
20260504180604 25 262 6.4 14.5 0.00 0.00 0.00 45 1015.1
20260504180103 25 138 6.4 12.9 0.00 0.00 0.00 47 1015.3
20260504175600 25 249 4.8 6.4 0.00 0.00 0.00 48 1015.5
20260504175056 25 199 6.4 19.3 0.00 0.00 0.00 45 1015.4
20260504174555 25 217 1.6 11.3 0.00 0.00 0.00 45 1015.4
20260504174051 25 246 8.0 22.5 0.00 0.00 0.00 45 1015.8
20260504173548 25 191 6.4 16.1 0.00 0.00 0.00 46 1015.6
20260504173045 25 122 9.7 16.1 0.00 0.00 0.00 45 1015.7
20260504172541 25 222 3.2 8.0 0.00 0.00 0.00 48 1015.6
20260504172038 25 281 3.2 9.7 0.00 0.00 0.00 47 1015.6
20260504171535 25 211 6.4 12.9 0.00 0.00 0.00 46 1015.6
20260504171032 25 148 6.4 6.4 0.00 0.00 0.00 48 1015.6
20260504170528 24 120 6.4 16.1 0.00 0.00 0.00 47 1015.6
20260504150912 21 212 1.6 9.7 0.00 0.00 0.00 60 1016.6
20260504150409 21 129 4.8 11.3 0.00 0.00 0.00 60 1016.5
20260504140835 18 190 3.2 6.4 0.00 0.00 0.00 69 1016.9
20260504140330 18 238 1.6 16.1 0.00 0.00 0.00 69 1016.9
20260504130800 15 116 4.8 8.0 0.00 0.00 0.00 79 1016.7
20260504130256 15 179 0.0 6.4 0.00 0.00 0.00 80 1016.8
20260504120219 12 116 3.2 4.8 0.00 0.00 0.00 91 1016.3
20260504110647 11 137 1.6 3.2 0.00 0.00 0.00 92 1015.9
20260504110143 11 112 4.8 6.4 0.00 0.00 0.00 92 1016.3
20260504100609 12 87 3.2 3.2 0.00 0.00 0.00 91 1016.6
20260504100107 12 129 0.0 3.2 0.00 0.00 0.00 91 1016.8
20260504082003 13 129 0.0 1.6 0.00 0.00 0.00 84 1016.5
20260504081500 13 124 0.0 3.2 0.00 0.00 0.00 84 1016.5
20260504080955 13 123 0.0 1.6 0.00 0.00 0.00 83 1016.4
20260504080452 14 135 0.0 1.6 0.00 0.00 0.00 83 1016.5